This is the latest recevied weather packets stored in our database for station/object N2XGL-1. If no packets are shown the sender has not sent any weather packets the latest 10 day(s).
| Time | Temp. | Humidity | Pressure | Rain* | Wind** | Luminosity | Snow |
|---|---|---|---|---|---|---|---|
| 1778234461 | 6.67° C | 90% | 1008.8 hPa | 0 mm | - | - | - |
| 1778233974 | 6.67° C | 90% | 1008.7 hPa | 0 mm | - | - | - |
| 1778233429 | 6.11° C | 89% | 1008.3 hPa | 0 mm | - | - | - |
| 1778232926 | 6.11° C | 89% | 1008.1 hPa | 0 mm | - | - | - |
| 1778232419 | 6.11° C | 88% | 1007.9 hPa | 0 mm | - | - | - |
| 1778231934 | 6.11° C | 88% | 1008.1 hPa | 0 mm | - | - | - |
| 1778231394 | 6.67° C | 87% | 1008.3 hPa | 0 mm | - | - | - |
| 1778230972 | 6.67° C | 87% | 1008 hPa | 0 mm | - | - | - |
| 1778230903 | 6.67° C | 87% | 1008 hPa | 0 mm | - | - | - |
| 1778230401 | 7.22° C | 86% | 1008.3 hPa | 0 mm | - | - | - |
| 1778229849 | 7.22° C | 86% | 1008.4 hPa | 0 mm | - | - | - |
| 1778229284 | 7.78° C | 86% | 1008.2 hPa | 0 mm | - | - | - |
| 1778229222 | 7.78° C | 86% | 1008.4 hPa | 0 mm | - | - | - |
| 1778228754 | 7.78° C | 86% | 1008.4 hPa | 0 mm | - | - | - |
| 1778228348 | 7.78° C | 86% | 1008.7 hPa | 0 mm | - | - | - |
| 1778228169 | 7.78° C | 86% | 1008.7 hPa | 0 mm | - | - | - |
| 1778227584 | 7.78° C | 86% | 1009 hPa | 0 mm | - | - | - |
| 1778227009 | 8.33° C | 84% | 1009.3 hPa | 0 mm | - | - | - |
| 1778226413 | 8.33° C | 84% | 1009.4 hPa | 0 mm | - | - | - |
| 1778225947 | 8.33° C | 83% | 1009.4 hPa | 0 mm | - | - | - |
| 1778225913 | 8.33° C | 83% | 1009.4 hPa | 0 mm | - | - | - |
| 1778225349 | 8.89° C | 83% | 1009.6 hPa | 0 mm | - | - | - |
| 1778224954 | 8.89° C | 83% | 1009.4 hPa | 0 mm | - | - | - |
| 1778224779 | 8.89° C | 83% | 1009.4 hPa | 0 mm | - | - | - |
| 1778224239 | 9.44° C | 83% | 1009.4 hPa | 0 mm | - | - | - |
* Rain latest hour (hover to see other rain measurements)
** Current wind speed in m/s (hover to see current wind gust speed)